Time,TemperatureF,DewpointF,PressureIn,WindDirection,WindDirectionDegrees,WindSpeedMPH,WindSpeedGustMPH,Humidity,HourlyPrecipIn,Conditions,Clouds,dailyrainin,SoftwareType,DateUTC
2013-04-11 06:30:00,75.3,70.8,29.96,ESE,112,2.0,9.0,86,0.00,,,0.00,VWS V14.01,2013-04-11 10:30:00,
2013-04-11 06:52:00,75.3,70.8,29.96,ESE,112,2.0,9.0,86,0.00,,,0.00,VWS V14.01,2013-04-11 10:52:00,
2013-04-11 06:57:00,76.0,70.8,29.97,ESE,112,3.0,8.0,84,0.00,,,0.00,VWS V14.01,2013-04-11 10:57:00,
2013-04-11 07:02:00,76.1,70.9,29.97,ENE,62,2.0,9.0,84,0.00,,,0.00,VWS V14.01,2013-04-11 11:02:00,
2013-04-11 07:07:00,76.2,71.0,29.97,SE,142,1.0,9.0,84,0.00,,,0.00,VWS V14.01,2013-04-11 11:07:00,
2013-04-11 07:12:00,76.2,71.0,29.97,South,180,1.0,9.0,84,0.00,,,0.00,VWS V14.01,2013-04-11 11:12:00,
2013-04-11 07:17:00,76.2,71.0,29.97,ESE,115,5.0,12.0,84,0.00,,,0.00,VWS V14.01,2013-04-11 11:17:00,
2013-04-11 07:22:00,76.2,71.0,29.98,East,88,3.0,12.0,84,0.00,,,0.00,VWS V14.01,2013-04-11 11:22:00,
2013-04-11 07:27:00,76.2,71.0,29.98,ESE,105,4.0,12.0,84,0.00,,,0.00,VWS V14.01,2013-04-11 11:27:00,
2013-04-11 07:32:00,76.2,71.0,29.98,SE,134,2.0,6.0,84,0.00,,,0.00,VWS V14.01,2013-04-11 11:32:00,
2013-04-11 07:37:00,76.2,71.0,29.98,SSE,162,2.0,7.0,84,0.00,,,0.00,VWS V14.01,2013-04-11 11:37:00,
2013-04-11 07:42:00,76.4,70.9,29.98,East,88,1.0,11.0,83,0.00,,,0.00,VWS V14.01,2013-04-11 11:42:00,
2013-04-11 07:47:00,76.6,70.7,29.98,ESE,107,2.0,6.0,82,0.00,,,0.00,VWS V14.01,2013-04-11 11:47:00,
2013-04-11 07:52:00,76.8,70.9,29.98,South,176,7.0,10.0,82,0.00,,,0.00,VWS V14.01,2013-04-11 11:52:00,
2013-04-11 07:57:00,76.9,71.0,29.99,SE,128,6.0,10.0,82,0.00,,,0.00,VWS V14.01,2013-04-11 11:57:00,
2013-04-11 08:02:00,77.0,70.7,29.98,ESE,114,5.0,7.0,81,0.00,,,0.00,VWS V14.01,2013-04-11 12:02:00,
2013-04-11 08:07:00,77.2,70.9,29.99,East,86,2.0,8.0,81,0.00,,,0.00,VWS V14.01,2013-04-11 12:07:00,
2013-04-11 08:12:00,77.2,70.9,29.99,East,88,2.0,13.0,81,0.00,,,0.00,VWS V14.01,2013-04-11 12:12:00,
2013-04-11 08:17:00,77.3,71.0,29.99,East,95,6.0,12.0,81,0.00,,,0.00,VWS V14.01,2013-04-11 12:17:00,
2013-04-11 08:22:00,77.3,71.0,29.99,SE,131,1.0,17.0,81,0.00,,,0.00,VWS V14.01,2013-04-11 12:22:00,
2013-04-11 08:27:00,77.5,70.8,29.99,ESE,109,1.0,17.0,80,0.00,,,0.00,VWS V14.01,2013-04-11 12:27:00,
2013-04-11 08:32:00,77.6,70.9,29.99,ESE,121,2.0,8.0,80,0.00,,,0.00,VWS V14.01,2013-04-11 12:32:00,
2013-04-11 08:37:00,77.7,71.0,29.99,East,86,5.0,12.0,80,0.00,,,0.00,VWS V14.01,2013-04-11 12:37:00,
2013-04-11 08:42:00,77.8,70.8,30.00,ENE,71,4.0,12.0,79,0.00,,,0.00,VWS V14.01,2013-04-11 12:42:00,
2013-04-11 08:47:00,78.2,71.2,30.00,SE,133,2.0,8.0,79,0.00,,,0.00,VWS V14.01,2013-04-11 12:47:00,
2013-04-11 08:52:00,78.3,71.3,30.00,SE,133,7.0,8.0,79,0.00,,,0.00,VWS V14.01,2013-04-11 12:52:00,
2013-04-11 08:57:00,78.2,71.2,30.00,ESE,102,2.0,11.0,79,0.00,,,0.00,VWS V14.01,2013-04-11 12:57:00,
2013-04-11 09:02:00,78.1,71.1,30.00,ESE,103,4.0,9.0,79,0.00,,,0.00,VWS V14.01,2013-04-11 13:02:00,
2013-04-11 09:07:00,78.3,70.9,30.00,SSE,154,5.0,15.0,78,0.00,,,0.00,VWS V14.01,2013-04-11 13:07:00,
2013-04-11 09:12:00,78.5,71.1,30.00,SE,138,3.0,15.0,78,0.00,,,0.00,VWS V14.01,2013-04-11 13:12:00,
2013-04-11 09:17:00,78.8,71.0,30.00,SE,142,5.0,13.0,77,0.00,,,0.00,VWS V14.01,2013-04-11 13:17:00,
2013-04-11 09:22:00,78.9,71.1,30.00,ESE,107,3.0,13.0,77,0.00,,,0.00,VWS V14.01,2013-04-11 13:22:00,
2013-04-11 09:27:00,79.1,70.9,30.00,ESE,118,2.0,13.0,76,0.00,,,0.00,VWS V14.01,2013-04-11 13:27:00,
2013-04-11 09:32:00,79.4,71.2,30.00,ESE,118,8.0,14.0,76,0.00,,,0.00,VWS V14.01,2013-04-11 13:32:00,
2013-04-11 09:37:00,79.8,71.2,30.00,ESE,116,8.0,14.0,75,0.00,,,0.00,VWS V14.01,2013-04-11 13:37:00,
2013-04-11 09:42:00,79.4,71.2,30.00,SE,136,4.0,14.0,76,0.00,,,0.00,VWS V14.01,2013-04-11 13:42:00,
2013-04-11 09:47:00,78.9,71.5,30.01,East,101,1.0,11.0,78,0.00,,,0.00,VWS V14.01,2013-04-11 13:47:00,
2013-04-11 09:53:00,78.9,71.1,30.00,NE,55,5.0,11.0,77,0.00,,,0.00,VWS V14.01,2013-04-11 13:53:00,
2013-04-11 09:58:00,79.2,72.5,30.01,SE,142,10.0,13.0,80,0.00,,,0.00,VWS V14.01,2013-04-11 13:58:00,
2013-04-11 10:03:00,79.3,71.8,30.01,SE,144,10.0,12.0,78,0.00,,,0.00,VWS V14.01,2013-04-11 14:03:00,
2013-04-11 10:08:00,79.9,71.3,30.01,ESE,107,7.0,15.0,75,0.00,,,0.00,VWS V14.01,2013-04-11 14:08:00,
2013-04-11 10:13:00,80.3,71.3,30.01,SE,128,6.0,17.0,74,0.00,,,0.00,VWS V14.01,2013-04-11 14:13:00,
2013-04-11 10:18:00,80.5,71.8,30.01,ENE,77,5.0,19.0,75,0.00,,,0.00,VWS V14.01,2013-04-11 14:18:00,
2013-04-11 10:23:00,80.7,71.2,30.01,ESE,103,17.0,20.0,73,0.00,,,0.00,VWS V14.01,2013-04-11 14:23:00,
2013-04-11 10:28:00,80.4,71.4,30.01,NE,36,4.0,20.0,74,0.00,,,0.00,VWS V14.01,2013-04-11 14:28:00,
2013-04-11 10:33:00,80.6,71.6,30.01,SSE,153,2.0,12.0,74,0.00,,,0.00,VWS V14.01,2013-04-11 14:33:00,
2013-04-11 10:38:00,80.8,71.3,30.01,ESE,105,3.0,13.0,73,0.00,,,0.00,VWS V14.01,2013-04-11 14:38:00,
2013-04-11 10:43:00,80.3,70.9,30.01,East,98,6.0,16.0,73,0.00,,,0.00,VWS V14.01,2013-04-11 14:43:00,
2013-04-11 10:48:00,80.4,71.0,30.02,ESE,114,10.0,16.0,73,0.00,,,0.00,VWS V14.01,2013-04-11 14:48:00,
2013-04-11 10:53:00,80.7,71.2,30.02,ESE,107,8.0,16.0,73,0.00,,,0.00,VWS V14.01,2013-04-11 14:53:00,
2013-04-11 10:58:00,80.3,71.3,30.02,ESE,103,3.0,19.0,74,0.00,,,0.00,VWS V14.01,2013-04-11 14:58:00,
2013-04-11 11:03:00,80.4,71.8,30.02,East,98,0.0,15.0,75,0.00,,,0.00,VWS V14.01,2013-04-11 15:03:00,
2013-04-11 11:08:00,81.4,71.9,30.02,NE,41,5.0,15.0,73,0.00,,,0.00,VWS V14.01,2013-04-11 15:08:00,
2013-04-11 11:13:00,82.6,71.8,30.02,ESE,111,5.0,15.0,70,0.00,,,0.00,VWS V14.01,2013-04-11 15:13:00,
2013-04-11 11:18:00,83.4,71.3,30.01,East,86,5.0,14.0,67,0.00,,,0.00,VWS V14.01,2013-04-11 15:18:00,
2013-04-11 11:23:00,82.7,71.5,30.01,SE,144,5.0,14.0,69,0.00,,,0.00,VWS V14.01,2013-04-11 15:23:00,
2013-04-11 11:28:00,83.7,72.0,30.01,SE,134,7.0,14.0,68,0.00,,,0.00,VWS V14.01,2013-04-11 15:28:00,
2013-04-11 11:33:00,83.9,71.8,30.01,East,84,8.0,9.0,67,0.00,,,0.00,VWS V14.01,2013-04-11 15:33:00,
2013-04-11 11:38:00,83.9,71.8,30.01,SE,130,9.0,15.0,67,0.00,,,0.00,VWS V14.01,2013-04-11 15:38:00,
2013-04-11 11:43:00,84.0,71.9,30.00,ESE,122,8.0,16.0,67,0.00,,,0.00,VWS V14.01,2013-04-11 15:43:00,
2013-04-11 11:48:00,83.4,71.3,30.00,SE,135,7.0,8.0,67,0.00,,,0.00,VWS V14.01,2013-04-11 15:48:00,
2013-04-11 11:53:00,83.7,72.0,30.00,ENE,66,3.0,15.0,68,0.00,,,0.00,VWS V14.01,2013-04-11 15:53:00,
2013-04-11 11:58:00,84.2,72.1,30.00,ESE,114,4.0,17.0,67,0.00,,,0.00,VWS V14.01,2013-04-11 15:58:00,
2013-04-11 12:03:00,84.0,71.4,30.00,ENE,77,5.0,13.0,66,0.00,,,0.00,VWS V14.01,2013-04-11 16:03:00,
2013-04-11 12:08:00,84.0,71.9,30.00,SSW,207,2.0,13.0,67,0.00,,,0.00,VWS V14.01,2013-04-11 16:08:00,
2013-04-11 12:13:00,84.0,71.4,30.00,ESE,122,8.0,13.0,66,0.00,,,0.00,VWS V14.01,2013-04-11 16:13:00,
2013-04-11 12:18:00,83.9,72.2,30.00,ESE,119,5.0,9.0,68,0.00,,,0.00,VWS V14.01,2013-04-11 16:18:00,
2013-04-11 12:23:00,83.7,71.6,30.00,East,86,8.0,13.0,67,0.00,,,0.00,VWS V14.01,2013-04-11 16:23:00,
2013-04-11 12:28:00,83.2,71.6,30.00,East,94,6.0,14.0,68,0.00,,,0.00,VWS V14.01,2013-04-11 16:28:00,
2013-04-11 12:33:00,83.8,71.7,30.00,ESE,119,7.0,18.0,67,0.00,,,0.00,VWS V14.01,2013-04-11 16:33:00,
2013-04-11 12:38:00,84.1,71.5,30.00,SE,136,8.0,18.0,66,0.00,,,0.00,VWS V14.01,2013-04-11 16:38:00,
2013-04-11 12:43:00,84.4,70.9,30.00,SE,136,11.0,20.0,64,0.00,,,0.00,VWS V14.01,2013-04-11 16:43:00,
2013-04-11 12:48:00,83.9,71.3,30.00,East,94,7.0,11.0,66,0.00,,,0.00,VWS V14.01,2013-04-11 16:48:00,
2013-04-11 12:53:00,84.2,72.1,30.00,ESE,114,10.0,13.0,67,0.00,,,0.00,VWS V14.01,2013-04-11 16:53:00,
2013-04-11 12:58:00,84.7,71.6,30.00,SE,128,7.0,14.0,65,0.00,,,0.00,VWS V14.01,2013-04-11 16:58:00,
2013-04-11 13:03:00,84.1,71.5,29.99,SSE,157,2.0,10.0,66,0.00,,,0.00,VWS V14.01,2013-04-11 17:03:00,
2013-04-11 13:08:00,84.4,71.4,29.99,ESE,123,10.0,17.0,65,0.00,,,0.00,VWS V14.01,2013-04-11 17:08:00,
2013-04-11 13:13:00,83.8,71.2,29.99,SSE,149,4.0,17.0,66,0.00,,,0.00,VWS V14.01,2013-04-11 17:13:00,
2013-04-11 13:18:00,84.3,71.7,29.99,East,94,11.0,11.0,66,0.00,,,0.00,VWS V14.01,2013-04-11 17:18:00,
2013-04-11 13:23:00,84.9,72.3,29.99,East,80,6.0,11.0,66,0.00,,,0.00,VWS V14.01,2013-04-11 17:23:00,
2013-04-11 13:28:00,85.4,71.4,29.99,ESE,115,2.0,11.0,63,0.00,,,0.00,VWS V14.01,2013-04-11 17:28:00,
2013-04-11 13:33:00,85.5,71.9,29.98,SE,126,4.0,12.0,64,0.00,,,0.00,VWS V14.01,2013-04-11 17:33:00,
2013-04-11 13:38:00,84.9,71.8,29.98,NNE,21,3.0,18.0,65,0.00,,,0.00,VWS V14.01,2013-04-11 17:38:00,
2013-04-11 13:43:00,85.7,72.1,29.98,East,90,5.0,18.0,64,0.00,,,0.00,VWS V14.01,2013-04-11 17:43:00,
2013-04-11 13:48:00,85.1,71.1,29.98,East,92,2.0,12.0,63,0.00,,,0.00,VWS V14.01,2013-04-11 17:48:00,
2013-04-11 13:53:00,86.0,71.9,29.97,ESE,117,2.0,13.0,63,0.00,,,0.00,VWS V14.01,2013-04-11 17:53:00,
2013-04-11 13:58:00,85.0,71.5,29.97,ESE,105,11.0,14.0,64,0.00,,,0.00,VWS V14.01,2013-04-11 17:58:00,
2013-04-11 14:03:00,85.5,71.9,29.97,East,100,5.0,10.0,64,0.00,,,0.00,VWS V14.01,2013-04-11 18:03:00,
2013-04-11 14:08:00,85.1,71.1,29.97,ENE,61,3.0,18.0,63,0.00,,,0.00,VWS V14.01,2013-04-11 18:08:00,
2013-04-11 14:13:00,85.7,71.7,29.96,SE,135,12.0,19.0,63,0.00,,,0.00,VWS V14.01,2013-04-11 18:13:00,
2013-04-11 14:18:00,85.8,71.8,29.96,East,95,5.0,11.0,63,0.00,,,0.00,VWS V14.01,2013-04-11 18:18:00,
2013-04-11 14:23:00,85.4,71.8,29.96,SSE,149,6.0,13.0,64,0.00,,,0.00,VWS V14.01,2013-04-11 18:23:00,
2013-04-11 14:28:00,85.3,71.8,29.96,South,178,10.0,13.0,64,0.00,,,0.00,VWS V14.01,2013-04-11 18:28:00,
2013-04-11 14:33:00,85.0,71.9,29.96,East,87,6.0,14.0,65,0.00,,,0.00,VWS V14.01,2013-04-11 18:33:00,
2013-04-11 14:38:00,84.9,71.4,29.96,SE,134,2.0,16.0,64,0.00,,,0.00,VWS V14.01,2013-04-11 18:38:00,
2013-04-11 14:43:00,85.1,71.6,29.95,SE,133,6.0,16.0,64,0.00,,,0.00,VWS V14.01,2013-04-11 18:43:00,
2013-04-11 14:48:00,84.3,71.3,29.95,SE,134,6.0,13.0,65,0.00,,,0.00,VWS V14.01,2013-04-11 18:48:00,
2013-04-11 14:53:00,84.5,71.4,29.95,SSE,147,9.0,17.0,65,0.00,,,0.00,VWS V14.01,2013-04-11 18:53:00,
2013-04-11 14:58:00,85.9,71.8,29.95,ESE,102,9.0,17.0,63,0.00,,,0.00,VWS V14.01,2013-04-11 18:58:00,
2013-04-11 15:03:00,85.7,71.2,29.95,SE,125,11.0,18.0,62,0.00,,,0.00,VWS V14.01,2013-04-11 19:03:00,
2013-04-11 15:08:00,85.6,71.1,29.95,ESE,112,5.0,18.0,62,0.00,,,0.00,VWS V14.01,2013-04-11 19:08:00,
2013-04-11 15:13:00,86.3,71.8,29.94,South,185,3.0,18.0,62,0.00,,,0.00,VWS V14.01,2013-04-11 19:13:00,
2013-04-11 15:18:00,85.5,71.5,29.94,ESE,118,12.0,16.0,63,0.00,,,0.00,VWS V14.01,2013-04-11 19:18:00,
2013-04-11 15:23:00,83.9,71.8,29.94,ENE,74,10.0,16.0,67,0.00,,,0.00,VWS V14.01,2013-04-11 19:23:00,
2013-04-11 15:28:00,85.7,72.1,29.93,East,90,2.0,16.0,64,0.00,,,0.00,VWS V14.01,2013-04-11 19:28:00,
2013-04-11 15:33:00,86.5,71.9,29.93,SSW,192,2.0,12.0,62,0.00,,,0.00,VWS V14.01,2013-04-11 19:33:00,
2013-04-11 15:38:00,85.8,71.8,29.93,South,173,3.0,13.0,63,0.00,,,0.00,VWS V14.01,2013-04-11 19:38:00,
2013-04-11 15:43:00,85.2,71.2,29.93,SSE,158,3.0,13.0,63,0.00,,,0.00,VWS V14.01,2013-04-11 19:43:00,
2013-04-11 15:48:00,84.9,71.8,29.93,South,175,5.0,14.0,65,0.00,,,0.00,VWS V14.01,2013-04-11 19:48:00,
2013-04-11 15:53:00,85.2,71.7,29.93,SSE,149,8.0,14.0,64,0.00,,,0.00,VWS V14.01,2013-04-11 19:53:00,
2013-04-11 15:58:00,84.2,71.6,29.93,SE,136,4.0,20.0,66,0.00,,,0.00,VWS V14.01,2013-04-11 19:58:00,
2013-04-11 16:03:00,83.4,71.7,29.93,SSE,148,2.0,12.0,68,0.00,,,0.00,VWS V14.01,2013-04-11 20:03:00,
2013-04-11 16:08:00,83.8,71.2,29.93,SSE,150,4.0,15.0,66,0.00,,,0.00,VWS V14.01,2013-04-11 20:08:00,
2013-04-11 16:13:00,84.2,71.6,29.92,SSE,167,5.0,15.0,66,0.00,,,0.00,VWS V14.01,2013-04-11 20:13:00,
2013-04-11 16:18:00,85.7,72.6,29.92,SE,124,10.0,14.0,65,0.00,,,0.00,VWS V14.01,2013-04-11 20:18:00,
2013-04-11 16:23:00,85.4,71.8,29.92,SSE,159,6.0,16.0,64,0.00,,,0.00,VWS V14.01,2013-04-11 20:23:00,
2013-04-11 16:28:00,85.5,71.9,29.92,SSE,157,5.0,16.0,64,0.00,,,0.00,VWS V14.01,2013-04-11 20:28:00,
2013-04-11 16:33:00,84.4,71.8,29.92,ESE,119,7.0,11.0,66,0.00,,,0.00,VWS V14.01,2013-04-11 20:33:00,
2013-04-11 16:38:00,85.8,72.2,29.92,East,101,1.0,11.0,64,0.00,,,0.00,VWS V14.01,2013-04-11 20:38:00,
2013-04-11 16:43:00,85.0,71.0,29.91,SSE,161,7.0,14.0,63,0.00,,,0.00,VWS V14.01,2013-04-11 20:43:00,
2013-04-11 16:48:00,83.3,71.2,29.91,South,169,5.0,13.0,67,0.00,,,0.00,VWS V14.01,2013-04-11 20:48:00,
2013-04-11 16:53:00,83.1,71.9,29.91,ESE,117,9.0,13.0,69,0.00,,,0.00,VWS V14.01,2013-04-11 20:53:00,
2013-04-11 16:58:00,83.0,71.8,29.91,SE,136,6.0,15.0,69,0.00,,,0.00,VWS V14.01,2013-04-11 20:58:00,
2013-04-11 17:03:00,83.1,71.9,29.91,ESE,115,4.0,12.0,69,0.00,,,0.00,VWS V14.01,2013-04-11 21:03:00,
2013-04-11 17:08:00,83.2,71.6,29.91,NE,53,2.0,12.0,68,0.00,,,0.00,VWS V14.01,2013-04-11 21:08:00,
2013-04-11 17:13:00,83.0,71.4,29.91,SE,133,5.0,12.0,68,0.00,,,0.00,VWS V14.01,2013-04-11 21:13:00,
2013-04-11 17:18:00,82.4,70.8,29.91,ESE,114,8.0,13.0,68,0.00,,,0.00,VWS V14.01,2013-04-11 21:18:00,
2013-04-11 17:23:00,82.1,71.3,29.91,WSW,251,4.0,16.0,70,0.00,,,0.00,VWS V14.01,2013-04-11 21:23:00,
2013-04-11 17:28:00,82.0,71.7,29.91,ENE,72,2.0,16.0,71,0.00,,,0.00,VWS V14.01,2013-04-11 21:28:00,
2013-04-11 17:33:00,81.7,71.4,29.92,East,80,8.0,12.0,71,0.00,,,0.00,VWS V14.01,2013-04-11 21:33:00,
2013-04-11 17:38:00,81.7,71.4,29.91,ESE,115,3.0,14.0,71,0.00,,,0.00,VWS V14.01,2013-04-11 21:38:00,
2013-04-11 17:43:00,81.8,71.5,29.91,SSE,152,10.0,14.0,71,0.00,,,0.00,VWS V14.01,2013-04-11 21:43:00,
2013-04-11 17:48:00,81.8,71.5,29.91,SE,128,6.0,13.0,71,0.00,,,0.00,VWS V14.01,2013-04-11 21:48:00,
2013-04-11 17:53:00,81.8,71.9,29.91,ENE,74,2.0,13.0,72,0.00,,,0.00,VWS V14.01,2013-04-11 21:53:00,
2013-04-11 17:58:00,81.8,71.9,29.91,ESE,105,4.0,13.0,72,0.00,,,0.00,VWS V14.01,2013-04-11 21:58:00,
2013-04-11 18:03:00,81.9,72.0,29.91,SE,140,2.0,9.0,72,0.00,,,0.00,VWS V14.01,2013-04-11 22:03:00,
2013-04-11 18:08:00,81.6,71.7,29.91,ESE,108,7.0,13.0,72,0.00,,,0.00,VWS V14.01,2013-04-11 22:08:00,
2013-04-11 18:13:00,81.8,72.3,29.91,South,173,0.0,13.0,73,0.00,,,0.00,VWS V14.01,2013-04-11 22:13:00,
2013-04-11 18:18:00,81.8,71.9,29.91,SE,133,5.0,13.0,72,0.00,,,0.00,VWS V14.01,2013-04-11 22:18:00,
2013-04-11 18:23:00,81.6,71.7,29.91,South,189,2.0,14.0,72,0.00,,,0.00,VWS V14.01,2013-04-11 22:23:00,
2013-04-11 18:28:00,81.6,71.7,29.91,SSE,153,2.0,14.0,72,0.00,,,0.00,VWS V14.01,2013-04-11 22:28:00,
2013-04-11 18:33:00,81.5,71.6,29.91,East,92,5.0,13.0,72,0.00,,,0.00,VWS V14.01,2013-04-11 22:33:00,
2013-04-11 18:38:00,81.4,71.9,29.91,East,101,8.0,13.0,73,0.00,,,0.00,VWS V14.01,2013-04-11 22:38:00,
2013-04-11 18:43:00,81.2,71.7,29.91,SSE,150,5.0,13.0,73,0.00,,,0.00,VWS V14.01,2013-04-11 22:43:00,
2013-04-11 18:48:00,81.2,71.7,29.91,SSE,149,5.0,8.0,73,0.00,,,0.00,VWS V14.01,2013-04-11 22:48:00,
2013-04-11 18:53:00,81.2,72.1,29.91,ESE,102,0.0,8.0,74,0.00,,,0.00,VWS V14.01,2013-04-11 22:53:00,
2013-04-11 18:58:00,81.0,72.3,29.91,SE,131,4.0,10.0,75,0.00,,,0.00,VWS V14.01,2013-04-11 22:58:00,
2013-04-11 19:03:00,80.7,72.4,29.91,East,100,0.0,8.0,76,0.00,,,0.00,VWS V14.01,2013-04-11 23:03:00,
2013-04-11 19:08:00,80.4,72.5,29.91,SE,132,6.0,13.0,77,0.00,,,0.00,VWS V14.01,2013-04-11 23:08:00,
2013-04-11 19:13:00,80.1,72.2,29.91,ESE,113,1.0,13.0,77,0.00,,,0.00,VWS V14.01,2013-04-11 23:13:00,
2013-04-11 19:18:00,79.9,72.4,29.91,SE,125,5.0,12.0,78,0.00,,,0.00,VWS V14.01,2013-04-11 23:18:00,
2013-04-11 19:23:00,79.8,72.7,29.91,East,91,8.0,12.0,79,0.00,,,0.00,VWS V14.01,2013-04-11 23:23:00,
2013-04-11 19:28:00,79.7,72.6,29.91,SSE,151,2.0,12.0,79,0.00,,,0.00,VWS V14.01,2013-04-11 23:28:00,
2013-04-11 19:33:00,79.6,72.5,29.91,East,98,3.0,6.0,79,0.00,,,0.00,VWS V14.01,2013-04-11 23:33:00,
2013-04-11 19:38:00,79.4,72.3,29.91,ESE,106,3.0,7.0,79,0.00,,,0.00,VWS V14.01,2013-04-11 23:38:00,
2013-04-11 19:43:00,79.3,72.6,29.91,ESE,119,1.0,8.0,80,0.00,,,0.00,VWS V14.01,2013-04-11 23:43:00,
2013-04-11 19:48:00,79.1,72.4,29.91,East,92,3.0,10.0,80,0.00,,,0.00,VWS V14.01,2013-04-11 23:48:00,
2013-04-11 19:53:00,78.9,72.6,29.91,ESE,103,3.0,10.0,81,0.00,,,0.00,VWS V14.01,2013-04-11 23:53:00,
2013-04-11 19:58:00,78.8,72.5,29.91,SE,126,2.0,10.0,81,0.00,,,0.00,VWS V14.01,2013-04-11 23:58:00,
2013-04-11 20:03:00,78.7,72.8,29.91,SE,124,2.0,7.0,82,0.00,,,0.00,VWS V14.01,2013-04-12 00:03:00,
2013-04-11 20:08:00,78.6,72.7,29.91,ESE,104,2.0,9.0,82,0.00,,,0.00,VWS V14.01,2013-04-12 00:08:00,
2013-04-11 20:13:00,78.5,72.9,29.90,ESE,123,1.0,13.0,83,0.00,,,0.00,VWS V14.01,2013-04-12 00:13:00,
2013-04-11 20:18:00,78.4,72.8,29.91,ESE,111,1.0,9.0,83,0.00,,,0.00,VWS V14.01,2013-04-12 00:18:00,
2013-04-11 20:23:00,78.3,72.7,29.90,ESE,115,1.0,9.0,83,0.00,,,0.00,VWS V14.01,2013-04-12 00:23:00,
2013-04-11 20:28:00,78.2,73.0,29.91,SE,130,4.0,9.0,84,0.00,,,0.00,VWS V14.01,2013-04-12 00:28:00,
2013-04-11 20:33:00,78.1,72.9,29.90,ESE,121,4.0,9.0,84,0.00,,,0.00,VWS V14.01,2013-04-12 00:33:00,
2013-04-11 20:38:00,78.0,72.8,29.91,ESE,105,0.0,9.0,84,0.00,,,0.00,VWS V14.01,2013-04-12 00:38:00,
2013-04-11 20:43:00,77.9,72.7,29.90,ESE,103,9.0,10.0,84,0.00,,,0.00,VWS V14.01,2013-04-12 00:43:00,
2013-04-11 20:48:00,77.9,73.0,29.90,ESE,116,0.0,8.0,85,0.00,,,0.00,VWS V14.01,2013-04-12 00:48:00,
2013-04-11 20:53:00,77.8,72.9,29.90,ENE,71,0.0,8.0,85,0.00,,,0.00,VWS V14.01,2013-04-12 00:53:00,
2013-04-11 20:58:00,77.8,72.9,29.91,East,87,5.0,10.0,85,0.00,,,0.00,VWS V14.01,2013-04-12 00:58:00,
2013-04-11 21:03:00,77.8,72.9,29.91,ESE,109,1.0,9.0,85,0.00,,,0.00,VWS V14.01,2013-04-12 01:03:00,
2013-04-11 21:08:00,77.8,72.9,29.91,SE,142,2.0,9.0,85,0.00,,,0.00,VWS V14.01,2013-04-12 01:08:00,
2013-04-11 21:13:00,77.7,72.8,29.91,SE,137,4.0,12.0,85,0.00,,,0.00,VWS V14.01,2013-04-12 01:13:00,
2013-04-11 21:18:00,77.7,73.2,29.91,ENE,69,1.0,3.0,86,0.00,,,0.00,VWS V14.01,2013-04-12 01:18:00,
2013-04-11 21:23:00,77.7,73.2,29.91,NE,56,2.0,8.0,86,0.00,,,0.00,VWS V14.01,2013-04-12 01:23:00,
2013-04-11 21:28:00,77.7,73.2,29.91,SE,144,2.0,9.0,86,0.00,,,0.00,VWS V14.01,2013-04-12 01:28:00,
2013-04-11 21:33:00,77.8,73.3,29.92,ESE,113,5.0,8.0,86,0.00,,,0.00,VWS V14.01,2013-04-12 01:33:00,
2013-04-11 21:38:00,77.8,72.9,29.92,SE,125,3.0,9.0,85,0.00,,,0.00,VWS V14.01,2013-04-12 01:38:00,
2013-04-11 21:43:00,77.8,72.9,29.92,ESE,103,2.0,9.0,85,0.00,,,0.00,VWS V14.01,2013-04-12 01:43:00,
2013-04-11 21:48:00,77.7,72.8,29.92,SSE,167,0.0,6.0,85,0.00,,,0.00,VWS V14.01,2013-04-12 01:48:00,